Home > Weather > Siegen > Past weeks

Flag for Germany Weather for the Past 2 Weeks in Siegen, North Rhine-Westphalia, Germany

Now
37 °F

Partly sunny.


Feels Like: 33 °F
Forecast: 32 / 40 °F
Wind: 6 mph from West

Location: Hessen

Current Time: Feb 11, 2016 at 4:37:22 PM

Latest Report: Feb 11, 2016 at 3:50 PM


Visibility: N/A

Pressure: 29.62 "Hg

Humidity: 81%

Dew point: 32 °F

Location of SiegenLocation

Historic Weather in Siegen — Graph

°F

Siegen Temperature Yesterday

Maximum temperature yesterday: 34 °F (at 11:50 AM)
Minimum temperature yesterday: 32 °F (at 7:50 AM)
Average temperature yesterday: 32 °F

High & Low Weather Summary for the Past Weeks

 TemperatureHumidityPressure
High50 °F (Feb 6, 1:50 PM)100% (Jan 28, 7:50 AM)30.27 "Hg (Jan 28, 7:50 AM)
Low30 °F (Feb 3, 5:20 PM)66% (Jan 27, 6:20 PM)28.91 "Hg (Feb 9, 5:20 PM)
Average39 °F94%29.83 "Hg
* Reported Jan 27 3:20 PM — Feb 11 3:20 PM, Siegen, Weather by CustomWeather, © 2016

Note: Actual official high and low records may vary slightly from our data, if they occured in-between our weather recording intervals... More about our weather records

Advertising

Siegen Weather History for the Previous 24 Hours

 ConditionsComfort  
Time TempWeatherWind HumidityBarometerVisibility
3:20 PM
Thu, Feb 11
39 °FPartly sunny.6 mph81%29.62 "HgN/A
2:50 PM41 °FPartly sunny.5 mph81%29.62 "HgN/A
2:20 PM37 °FPartly sunny.8 mph87%29.62 "HgN/A
1:50 PM41 °FScattered clouds.6 mph87%29.62 "HgN/A
1:20 PM36 °FBroken clouds.7 mph93%29.62 "HgN/A
12:50 PM36 °FPartly sunny.6 mph93%29.62 "HgN/A
12:20 PM39 °FBroken clouds.8 mph93%29.65 "HgN/A
11:50 AM36 °FBroken clouds.14 mph93%29.65 "HgN/A
11:20 AM36 °FBroken clouds.14 mph93%29.62 "HgN/A
10:50 AM37 °FBroken clouds.14 mph93%29.62 "HgN/A
10:20 AM34 °FBroken clouds.14 mph100%29.62 "HgN/A
9:50 AM34 °FBroken clouds.14 mph100%29.62 "Hg4 mi
9:20 AM34 °FBroken clouds.14 mph100%29.62 "Hg5 mi
8:50 AM34 °FBroken clouds.14 mph100%29.62 "Hg4 mi
8:20 AM32 °FBroken clouds.15 mph100%29.59 "HgN/A
7:50 AM32 °FBroken clouds.14 mph100%29.59 "Hg4 mi
8:50 PM
Wed, Feb 10
32 °FLight snow. Ice fog.12 mph100%29.42 "Hg2 mi
8:20 PM32 °FLight snow. Ice fog.13 mph100%29.42 "Hg2 mi
7:50 PM32 °FLight snow. Ice fog.13 mph100%29.42 "Hg2 mi
7:20 PM34 °FFog.12 mph100%29.42 "Hg3 mi
6:50 PM32 °FIce fog.8 mph100%29.42 "Hg1 mi
6:20 PM32 °FSnow. Ice fog.7 mph100%29.39 "Hg1 mi
5:50 PM32 °FSnow. Ice fog.7 mph100%29.39 "Hg1 mi
5:20 PM32 °FLight snow. Ice fog.8 mph100%29.36 "Hg1 mi
4:50 PM32 °FSnow. Ice fog.9 mph100%29.36 "Hg1 mi
4:20 PM32 °FLight snow. Ice fog.9 mph100%29.33 "Hg1 mi
Weather by CustomWeather, © 2016

See weather overviewHow to use our weather pages